F6273 Weather Reports


time (UTC)temp
C
wind
direction
speed
KPH
gust
KPH
rain 1hr
cm
rain 24hr
cm
rain mn
cm
humidity
%
barometer
mb
20260508091025 15 299 8.0 16.1 0.00 0.00 0.00 65 1010.9
20260508090525 14 292 6.4 14.5 0.00 0.00 0.00 68 1011.1
20260508090058 14 292 6.4 14.5 0.00 0.00 0.00 68 1011.0
20260508085526 13 279 6.4 16.1 0.00 0.00 0.00 68 1011.1
20260508085027 13 293 6.4 16.1 0.00 0.00 0.00 69 1011.0
20260508084543 13 282 6.4 16.1 0.00 0.00 0.00 68 1010.9
20260508084029 13 259 8.0 14.5 0.00 0.00 0.00 67 1010.8
20260508083528 13 309 3.2 12.9 0.00 0.00 0.00 71 1010.8
20260508083044 13 271 4.8 12.9 0.00 0.00 0.00 72 1010.9
20260508082529 13 0 6.4 12.9 0.00 0.00 0.00 72 1010.9
20260508082028 13 293 4.8 12.9 0.00 0.00 0.00 73 1010.8
20260508081544 12 182 3.2 11.3 0.00 0.00 0.00 73 1010.8
20260508081401 12 280 3.2 12.9 0.00 0.00 0.00 73 1010.7
20260508080040 12 277 4.8 14.5 0.00 0.00 0.00 74 1010.6
20260508075526 12 0 4.8 14.5 0.00 0.00 0.00 74 1010.6
20260508075025 12 244 6.4 12.9 0.00 0.00 0.00 75 1010.5
20260508074543 12 244 4.8 14.5 0.00 0.00 0.00 75 1010.6
20260508074028 12 233 1.6 14.5 0.00 0.00 0.00 75 1010.6
20260508073527 12 280 4.8 14.5 0.00 0.00 0.00 75 1010.5
20260508073043 12 264 6.4 19.3 0.00 0.00 0.00 75 1010.5
20260508072530 12 258 8.0 19.3 0.00 0.00 0.00 75 1010.5
20260508072029 12 241 4.8 16.1 0.00 0.00 0.00 75 1010.6
20260508071554 12 265 6.4 14.5 0.00 0.00 0.00 74 1010.4
20260508071031 12 316 3.2 14.5 0.00 0.00 0.00 73 1010.3
20260508070527 12 166 1.6 12.9 0.00 0.00 0.00 74 1010.3
20260508070053 12 269 4.8 9.7 0.00 0.00 0.00 74 1010.3
20260508065526 12 292 3.2 9.7 0.00 0.00 0.00 75 1010.1
20260508065026 12 0 1.6 4.8 0.00 0.00 0.00 75 1010.0
20260508064547 12 0 0.0 4.8 0.00 0.00 0.00 74 1010.0
20260508064025 12 0 0.0 3.2 0.00 0.00 0.00 74 1009.8
20260508063525 12 0 0.0 0.0 0.00 0.00 0.00 75 1009.9
20260508063045 12 0 0.0 1.6 0.00 0.00 0.00 75 1009.9
20260508062524 12 0 0.0 4.8 0.00 0.00 0.00 75 1009.8
20260508062025 12 0 0.0 6.4 0.00 0.00 0.00 76 1009.6
20260508061543 11 0 0.0 6.4 0.00 0.00 0.00 76 1009.8
20260508061026 11 0 1.6 6.4 0.00 0.00 0.00 76 1009.6
20260508060527 11 0 0.0 3.2 0.00 0.00 0.00 76 1009.5
20260508060047 11 0 0.0 3.2 0.00 0.00 0.00 75 1009.4
20260508055525 11 0 0.0 0.0 0.00 0.00 0.00 75 1009.3
20260508055025 11 0 0.0 1.6 0.00 0.00 0.00 75 1009.3
20260508054547 11 0 0.0 1.6 0.00 0.00 0.00 75 1009.3
20260508054025 12 0 0.0 1.6 0.00 0.00 0.00 75 1009.2
20260508053528 12 0 0.0 1.6 0.00 0.00 0.00 75 1009.1
20260508053101 11 0 0.0 1.6 0.00 0.00 0.00 75 1009.1
20260508052524 11 0 0.0 1.6 0.00 0.00 0.00 75 1009.1
20260508052024 11 0 0.0 4.8 0.00 0.00 0.00 75 1009.2
20260508051541 11 0 0.0 6.4 0.00 0.00 0.00 75 1009.1
20260508051025 11 192 3.2 6.4 0.00 0.00 0.00 75 1009.1
20260508050524 11 0 0.0 0.0 0.00 0.00 0.00 75 1008.9
20260508050041 11 0 0.0 3.2 0.00 0.00 0.00 75 1008.8
20260508045528 12 0 0.0 3.2 0.00 0.00 0.00 75 1008.9
20260508045024 12 192 0.0 4.8 0.00 0.00 0.00 75 1009.0
20260508044538 12 0 0.0 4.8 0.00 0.00 0.00 75 1008.9
20260508044027 12 192 1.6 4.8 0.00 0.00 0.00 73 1008.9
20260508043527 12 0 0.0 4.8 0.00 0.00 0.00 73 1008.9
20260508043040 12 0 0.0 0.0 0.00 0.00 0.00 73 1008.9
20260508042527 12 0 0.0 3.2 0.00 0.00 0.00 73 1008.8
20260508042026 12 0 0.0 4.8 0.00 0.00 0.00 74 1008.8
20260508041606 12 0 0.0 4.8 0.00 0.00 0.00 74 1008.9
20260508041027 12 185 1.6 4.8 0.00 0.00 0.00 74 1008.9
20260508040525 12 182 0.0 3.2 0.00 0.00 0.00 74 1009.0
20260508040105 12 0 0.0 0.0 0.00 0.00 0.00 74 1008.9
20260508035524 12 0 0.0 1.6 0.00 0.00 0.00 74 1008.8
20260508035027 12 0 0.0 4.8 0.00 0.00 0.00 74 1008.9
20260508034539 12 182 0.0 6.4 0.00 0.00 0.00 74 1008.8
20260508034025 12 182 3.2 6.4 0.00 0.00 0.00 74 1008.6
20260508033524 12 186 3.2 8.0 0.00 0.00 0.00 75 1008.8
20260508033040 12 178 3.2 8.0 0.00 0.00 0.00 74 1008.6
20260508032527 12 204 3.2 6.4 0.00 0.00 0.00 74 1008.7
20260508032026 12 315 1.6 4.8 0.00 0.00 0.00 74 1008.6
20260508031540 12 0 0.0 0.0 0.00 0.00 0.00 74 1008.5
20260508031028 12 0 0.0 0.0 0.00 0.00 0.00 74 1008.3
20260508030530 12 0 0.0 3.2 0.00 0.00 0.00 74 1008.3
20260508030038 12 0 0.0 3.2 0.00 0.00 0.00 74 1008.3
20260508025527 12 0 0.0 3.2 0.00 0.00 0.00 74 1008.4
20260508025027 12 0 0.0 4.8 0.00 0.00 0.00 74 1008.3
20260508024543 12 0 0.0 4.8 0.00 0.00 0.00 74 1008.5
20260508024029 12 0 0.0 4.8 0.00 0.00 0.00 74 1008.4
20260508023532 12 0 0.0 4.8 0.00 0.00 0.00 73 1008.4
20260508023038 12 317 1.6 4.8 0.00 0.00 0.00 73 1008.5
20260508022527 12 0 0.0 4.8 0.00 0.00 0.00 73 1008.5
20260508022027 12 0 0.0 4.8 0.00 0.00 0.00 73 1008.2
20260508021544 12 0 0.0 4.8 0.00 0.00 0.00 72 1008.3
20260508021028 12 0 1.6 4.8 0.00 0.00 0.00 72 1008.4
20260508020528 12 323 0.0 3.2 0.00 0.00 0.00 72 1008.6
20260508020048 12 0 0.0 6.4 0.00 0.00 0.00 72 1008.7
20260508015528 13 0 1.6 6.4 0.00 0.00 0.00 71 1008.8
20260508015028 13 324 0.0 4.8 0.00 0.00 0.00 71 1008.7
20260508014539 13 325 1.6 4.8 0.00 0.00 0.00 71 1008.5
20260508014028 13 324 0.0 4.8 0.00 0.00 0.00 71 1008.6
20260508013530 13 323 0.0 6.4 0.00 0.00 0.00 71 1008.8
20260508013039 13 0 1.6 9.7 0.00 0.00 0.00 71 1008.7
20260508012527 13 360 0.0 16.1 0.00 0.00 0.00 70 1008.6
20260508012027 13 271 4.8 16.1 0.00 0.00 0.00 70 1008.8
20260508011554 13 264 6.4 16.1 0.00 0.00 0.00 70 1009.1
20260508011027 13 241 4.8 16.1 0.00 0.00 0.00 70 1009.1
20260508010527 13 0 0.0 12.9 0.00 0.00 0.00 69 1008.9
20260508010043 13 0 1.6 14.5 0.00 0.00 0.00 68 1008.8
20260508005527 13 256 6.4 17.7 0.00 0.00 0.00 68 1009.1
20260508005030 14 223 9.7 17.7 0.00 0.00 0.00 67 1009.1
20260508004543 14 247 8.0 16.1 0.00 0.00 0.00 67 1009.3
20260508004027 14 261 4.8 12.9 0.00 0.00 0.00 67 1009.3
20260508003527 14 238 4.8 11.3 0.00 0.00 0.00 67 1009.2
20260508003046 14 239 3.2 8.0 0.00 0.00 0.00 67 1009.2
20260508002527 14 259 0.0 6.4 0.00 0.00 0.00 67 1009.3
20260508002029 15 0 0.0 4.8 0.00 0.00 0.00 67 1009.3
20260508001549 15 271 0.0 4.8 0.00 0.00 0.00 66 1009.4
20260508001027 15 271 0.0 6.4 0.00 0.00 0.00 66 1009.4
20260508000528 15 0 0.0 6.4 0.00 0.00 0.00 65 1009.4
20260508000043 15 0 0.0 4.8 0.00 0.00 0.00 65 1009.5
20260507235528 15 275 3.2 4.8 0.00 0.00 0.00 65 1009.6
20260507235027 15 275 1.6 6.4 0.00 0.00 0.00 64 1009.6
20260507234541 15 0 3.2 6.4 0.00 0.00 0.00 64 1009.6
20260507234027 15 278 0.0 4.8 0.00 0.00 0.00 64 1009.7
20260507233528 15 0 0.0 0.0 0.00 0.00 0.00 63 1009.6
20260507233055 15 0 0.0 3.2 0.00 0.00 0.00 64 1009.7
20260507232528 15 0 0.0 4.8 0.00 0.00 0.00 64 1009.9
20260507232026 15 276 1.6 4.8 0.00 0.00 0.00 64 1009.8
20260507231540 15 279 1.6 4.8 0.00 0.00 0.00 63 1009.7
20260507231028 15 0 0.0 1.6 0.00 0.00 0.00 63 1009.6
20260507230528 15 0 0.0 3.2 0.00 0.00 0.00 63 1009.6
20260507230040 15 0 0.0 3.2 0.00 0.00 0.00 63 1009.6
20260507225529 15 285 0.0 3.2 0.00 0.00 0.00 63 1009.6
20260507225029 15 285 0.0 4.8 0.00 0.00 0.00 63 1009.6
20260507224554 15 0 1.6 4.8 0.00 0.00 0.00 63 1009.7
20260507224027 15 285 1.6 4.8 0.00 0.00 0.00 63 1009.6
20260507223529 15 286 0.0 6.4 0.00 0.00 0.00 62 1009.6
20260507223044 15 0 1.6 9.7 0.00 0.00 0.00 62 1009.6
20260507222530 15 284 3.2 11.3 0.00 0.00 0.00 62 1009.7
20260507222028 15 285 4.8 12.9 0.00 0.00 0.00 62 1009.7
20260507221539 16 288 4.8 12.9 0.00 0.00 0.00 61 1009.7
20260507221027 16 288 4.8 12.9 0.00 0.00 0.00 61 1009.7
20260507220531 16 279 4.8 14.5 0.00 0.00 0.00 60 1009.8
20260507220039 16 273 8.0 16.1 0.00 0.00 0.00 60 1009.9
20260507215531 16 275 8.0 17.7 0.00 0.00 0.00 60 1009.8
20260507215028 16 269 6.4 17.7 0.00 0.00 0.00 58 1009.6
20260507214546 16 288 11.3 17.7 0.00 0.00 0.00 58 1009.7
20260507214031 16 280 8.0 14.5 0.00 0.00 0.00 57 1009.7
20260507213527 16 290 1.6 12.9 0.00 0.00 0.00 55 1009.8
20260507213059 16 242 1.6 12.9 0.00 0.00 0.00 54 1009.7
20260507212527 16 284 3.2 11.3 0.00 0.00 0.00 53 1009.7
20260507212027 16 275 3.2 11.3 0.00 0.00 0.00 52 1009.5
20260507211542 16 252 3.2 11.3 0.00 0.00 0.00 51 1009.6
20260507211030 16 242 3.2 11.3 0.00 0.00 0.00 51 1009.7
20260507210530 16 0 3.2 8.0 0.00 0.00 0.00 51 1009.5
20260507210048 16 245 3.2 11.3 0.00 0.00 0.00 51 1009.4
20260507205527 16 247 3.2 11.3 0.00 0.00 0.00 50 1009.3
20260507205027 16 259 3.2 8.0 0.00 0.00 0.00 50 1009.3
20260507204539 17 254 0.0 8.0 0.00 0.00 0.00 49 1009.1
20260507204028 17 256 1.6 6.4 0.00 0.00 0.00 49 1009.1
20260507203528 17 261 1.6 8.0 0.00 0.00 0.00 49 1008.9
20260507203047 17 267 3.2 8.0 0.00 0.00 0.00 49 1008.8
20260507202527 17 242 3.2 8.0 0.00 0.00 0.00 49 1008.6
20260507202029 17 246 3.2 6.4 0.00 0.00 0.00 48 1008.6
20260507201546 17 234 3.2 6.4 0.00 0.00 0.00 48 1008.6
20260507201028 17 258 1.6 4.8 0.00 0.00 0.00 48 1008.5
20260507200527 17 265 1.6 6.4 0.00 0.00 0.00 47 1008.4
20260507200046 17 265 1.6 6.4 0.00 0.00 0.00 47 1008.4
20260507195528 17 0 1.6 6.4 0.00 0.00 0.00 47 1008.3
20260507195028 18 269 1.6 4.8 0.00 0.00 0.00 46 1008.3
20260507194610 18 0 1.6 4.8 0.00 0.00 0.00 46 1008.2
20260507194027 18 271 0.0 4.8 0.00 0.00 0.00 46 1008.2
20260507193528 18 0 0.0 3.2 0.00 0.00 0.00 45 1008.1
20260507193042 18 0 0.0 14.5 0.00 0.00 0.00 45 1008.1
20260507192528 18 0 0.0 14.5 0.00 0.00 0.00 45 1008.1
20260507192026 18 252 3.2 14.5 0.00 0.00 0.00 45 1008.1
20260507191550 19 288 4.8 14.5 0.00 0.00 0.00 44 1008.0
20260507191027 19 278 3.2 12.9 0.00 0.00 0.00 44 1007.9
20260507190527 19 294 4.8 14.5 0.00 0.00 0.00 44 1007.9
20260507190052 19 292 8.0 16.1 0.00 0.00 0.00 43 1007.9
20260507185528 20 288 8.0 17.7 0.00 0.00 0.00 43 1007.7
20260507185027 20 269 6.4 17.7 0.00 0.00 0.00 43 1007.6
20260507184543 20 299 9.7 17.7 0.00 0.00 0.00 42 1007.6
20260507184027 20 293 8.0 17.7 0.00 0.00 0.00 42 1007.5
20260507183527 20 292 11.3 17.7 0.00 0.00 0.00 42 1007.4
20260507183045 20 293 9.7 17.7 0.00 0.00 0.00 41 1007.4
20260507182527 21 257 4.8 19.3 0.00 0.00 0.00 41 1007.4
20260507182028 20 269 9.7 22.5 0.00 0.00 0.00 41 1007.3
20260507181541 20 305 11.3 22.5 0.00 0.00 0.00 41 1007.4
20260507181028 21 277 11.3 22.5 0.00 0.00 0.00 41 1007.4
20260507180528 21 261 11.3 19.3 0.00 0.00 0.00 41 1007.3
20260507180040 21 300 9.7 24.1 0.00 0.00 0.00 41 1007.3
20260507175530 21 271 12.9 27.4 0.00 0.00 0.00 40 1007.2
20260507175029 21 318 16.1 27.4 0.00 0.00 0.00 40 1007.2
20260507174556 21 289 12.9 22.5 0.00 0.00 0.00 40 1007.3
20260507174028 21 339 11.3 27.4 0.00 0.00 0.00 40 1007.2
20260507173527 21 304 11.3 27.4 0.00 0.00 0.00 40 1007.3
20260507173116 21 281 11.3 27.4 0.00 0.00 0.00 40 1007.3
20260507172527 21 263 11.3 20.9 0.00 0.00 0.00 40 1007.3
20260507172028 21 257 6.4 19.3 0.00 0.00 0.00 40 1007.2
20260507171547 21 275 9.7 20.9 0.00 0.00 0.00 39 1007.3
20260507171028 21 293 8.0 20.9 0.00 0.00 0.00 40 1007.2
20260507170528 21 315 12.9 20.9 0.00 0.00 0.00 39 1007.2
20260507170105 22 291 11.3 17.7 0.00 0.00 0.00 39 1007.4
20260507165527 22 271 11.3 27.4 0.00 0.00 0.00 38 1007.2
20260507165027 22 250 8.0 27.4 0.00 0.00 0.00 38 1007.3
20260507164548 22 292 12.9 27.4 0.00 0.00 0.00 38 1007.4
20260507164028 22 263 11.3 22.5 0.00 0.00 0.00 40 1007.3
20260507163528 22 293 12.9 22.5 0.00 0.00 0.00 39 1007.3
20260507163048 21 286 6.4 14.5 0.00 0.00 0.00 40 1007.3
20260507162527 21 329 9.7 16.1 0.00 0.00 0.00 41 1007.4
20260507162030 21 346 6.4 17.7 0.00 0.00 0.00 42 1007.4
20260507161602 21 0 6.4 19.3 0.00 0.00 0.00 41 1007.4
20260507161028 21 291 11.3 19.3 0.00 0.00 0.00 40 1007.4
20260507160528 21 301 8.0 16.1 0.00 0.00 0.00 40 1007.4
20260507160041 21 298 9.7 22.5 0.00 0.00 0.00 40 1007.4
20260507155528 21 295 8.0 22.5 0.00 0.00 0.00 40 1007.4
20260507155028 21 317 6.4 20.9 0.00 0.00 0.00 38 1007.4
20260507154542 22 275 11.3 20.9 0.00 0.00 0.00 37 1007.5
20260507154027 22 302 8.0 20.9 0.00 0.00 0.00 38 1007.5
20260507153528 22 343 12.9 20.9 0.00 0.00 0.00 38 1007.6
20260507153054 22 273 11.3 25.7 0.00 0.00 0.00 37 1007.6
20260507152530 22 285 9.7 25.7 0.00 0.00 0.00 37 1007.7
20260507152029 22 269 12.9 25.7 0.00 0.00 0.00 37 1007.7
20260507151539 22 234 12.9 27.4 0.00 0.00 0.00 36 1007.8
20260507151028 22 246 16.1 27.4 0.00 0.00 0.00 36 1007.7
20260507150528 22 289 11.3 24.1 0.00 0.00 0.00 36 1007.7
20260507150047 22 240 8.0 25.7 0.00 0.00 0.00 35 1007.8
20260507145527 23 208 11.3 30.6 0.00 0.00 0.00 34 1007.9
20260507145028 23 217 16.1 30.6 0.00 0.00 0.00 34 1007.9
20260507144546 22 236 9.7 22.5 0.00 0.00 0.00 35 1007.8
20260507144028 22 236 11.3 25.7 0.00 0.00 0.00 35 1007.9
20260507143528 22 243 16.1 25.7 0.00 0.00 0.00 34 1008.0
20260507143048 22 239 6.4 30.6 0.00 0.00 0.00 35 1008.0
20260507142528 22 216 12.9 30.6 0.00 0.00 0.00 35 1008.0
20260507142029 22 202 9.7 17.7 0.00 0.00 0.00 37 1008.0
20260507141602 22 214 8.0 17.7 0.00 0.00 0.00 36 1008.1
20260507141027 22 199 8.0 24.1 0.00 0.00 0.00 35 1008.2
20260507140527 22 169 8.0 24.1 0.00 0.00 0.00 35 1008.1
20260507140043 22 254 8.0 20.9 0.00 0.00 0.00 35 1008.1
20260507135527 22 261 6.4 24.1 0.00 0.00 0.00 36 1008.2
20260507135027 22 259 9.7 24.1 0.00 0.00 0.00 36 1008.2
20260507134540 22 238 8.0 20.9 0.00 0.00 0.00 38 1008.3
20260507134024 22 223 11.3 27.4 0.00 0.00 0.00 38 1008.4
20260507133528 22 235 12.9 32.2 0.00 0.00 0.00 38 1008.4
20260507133037 22 235 17.7 32.2 0.00 0.00 0.00 38 1008.5
20260507132529 21 271 14.5 32.2 0.00 0.00 0.00 39 1008.4
20260507132027 21 216 14.5 29.0 0.00 0.00 0.00 39 1008.5
20260507131540 22 238 14.5 30.6 0.00 0.00 0.00 37 1008.5
20260507131030 21 243 14.5 30.6 0.00 0.00 0.00 38 1008.4
20260507130529 22 267 11.3 29.0 0.00 0.00 0.00 37 1008.3
20260507130039 22 336 9.7 20.9 0.00 0.00 0.00 35 1008.4
20260507125529 22 238 8.0 20.9 0.00 0.00 0.00 33 1008.4
20260507125029 22 271 3.2 17.7 0.00 0.00 0.00 34 1008.5
20260507124543 23 0 1.6 19.3 0.00 0.00 0.00 31 1008.4
20260507124027 22 183 8.0 22.5 0.00 0.00 0.00 33 1008.6
20260507123527 22 265 8.0 25.7 0.00 0.00 0.00 34 1008.7
20260507123042 22 204 11.3 25.7 0.00 0.00 0.00 34 1008.8
20260507122527 21 184 4.8 19.3 0.00 0.00 0.00 35 1008.8
20260507122028 21 0 1.6 11.3 0.00 0.00 0.00 36 1009.0
20260507121542 21 217 3.2 11.3 0.00 0.00 0.00 36 1009.1
20260507121028 21 159 3.2 9.7 0.00 0.00 0.00 38 1009.2
20260507120527 20 163 0.0 17.7 0.00 0.00 0.00 37 1009.3
20260507120044 20 266 1.6 17.7 0.00 0.00 0.00 37 1009.4
20260507115527 20 266 8.0 17.7 0.00 0.00 0.00 37 1009.5
20260507115027 21 255 3.2 8.0 0.00 0.00 0.00 37 1009.5
20260507114544 21 0 0.0 9.7 0.00 0.00 0.00 34 1009.6
20260507114025 21 246 0.0 12.9 0.00 0.00 0.00 33 1009.5
20260507113527 21 0 4.8 17.7 0.00 0.00 0.00 35 1009.7
20260507113049 21 195 9.7 19.3 0.00 0.00 0.00 37 1009.6
20260507112528 21 196 9.7 19.3 0.00 0.00 0.00 36 1009.6
20260507112027 21 177 8.0 16.1 0.00 0.00 0.00 36 1009.6
20260507111539 21 246 1.6 12.9 0.00 0.00 0.00 41 1009.7
20260507111024 21 158 1.6 12.9 0.00 0.00 0.00 41 1009.7
20260507110529 21 169 3.2 12.9 0.00 0.00 0.00 41 1009.7
20260507110047 20 227 1.6 9.7 0.00 0.00 0.00 44 1009.7
20260507105527 20 0 1.6 9.7 0.00 0.00 0.00 42 1009.7
20260507105027 20 165 4.8 8.0 0.00 0.00 0.00 43 1009.8
20260507104540 20 298 1.6 12.9 0.00 0.00 0.00 44 1009.8
20260507104028 20 0 4.8 17.7 0.00 0.00 0.00 45 1009.8
20260507103527 20 178 9.7 17.7 0.00 0.00 0.00 46 1009.8
20260507103044 20 242 4.8 12.9 0.00 0.00 0.00 46 1009.8
20260507102528 20 218 4.8 12.9 0.00 0.00 0.00 46 1009.9
20260507102028 20 144 8.0 12.9 0.00 0.00 0.00 48 1009.9
20260507101542 19 117 3.2 11.3 0.00 0.00 0.00 51 1009.8
20260507101026 18 55 3.2 16.1 0.00 0.00 0.00 52 1009.8
20260507100527 18 86 4.8 16.1 0.00 0.00 0.00 52 1009.8
20260507100043 18 86 1.6 11.3 0.00 0.00 0.00 51 1009.8
20260507095528 18 114 1.6 14.5 0.00 0.00 0.00 53 1009.8
20260507095028 18 154 3.2 14.5 0.00 0.00 0.00 53 1009.7
20260507094539 18 84 3.2 9.7 0.00 0.00 0.00 54 1009.8
20260507094028 18 0 1.6 11.3 0.00 0.00 0.00 55 1009.8
20260507093527 17 76 1.6 12.9 0.00 0.00 0.00 57 1009.8
20260507093039 17 107 4.8 14.5 0.00 0.00 0.00 56 1010.0
20260507092527 17 150 6.4 14.5 0.00 0.00 0.00 57 1010.0
20260507092030 17 92 4.8 14.5 0.00 0.00 0.00 57 1010.0
20260507091546 17 85 4.8 14.5 0.00 0.00 0.00 56 1010.0